CAPE
1 0 nan 0 0 nan nan nan nan nan nan 1 5 5 5 3 3 3 4 12 12 15 18 17 17 15 0 nan nan nan nan nan nan nan nan nan nan nan nan nan nan nan nan nan nan nan nan nan nan nan nan nan nan nan nan 8 8 24 49 84 84 160 236 310 310 363 310 277 272 272 254 211 135 135 89 67 63 63 74 87 87 95 94 109 109 158
0 0 nan 0 0 nan nan nan nan nan nan 2 10 10 8 3 4 4 6 4 4 4 8 10 10 17 20 7 nan nan nan nan nan nan nan nan nan nan nan nan nan nan nan nan nan nan nan nan nan nan nan nan nan nan nan nan nan 4 24 42 42 102 187 302 302 391 363 364 281 281 214 135 87 87 72 63 69 69 83 97 97 106 106 134 134 190
2 0 0 0 0 nan nan nan nan nan nan 7 16 16 6 3 4 4 2 1 1 1 3 6 6 6 8 13 16 16 12 18 21 21 8 1 nan nan nan nan nan nan nan nan nan nan nan nan nan nan nan nan nan nan nan nan nan nan nan 5 5 23 49 122 122 192 219 211 152 152 100 60 45 45 60 75 89 89 97 106 106 116 130 155 155 231
2 1 1 0 0 0 nan nan nan nan 0 17 14 14 1 1 2 2 0 nan nan 0 2 2 2 1 2 3 4 4 4 2 7 7 14 9 1 1 nan nan nan nan nan nan nan nan nan nan nan nan nan nan nan nan nan nan nan nan nan nan nan nan 4 18 18 37 50 53 36 36 25 25 32 32 51 75 89 89 97 101 101 115 142 183 183 252
3 4 3 2 2 0 nan nan nan nan 11 23 3 3 nan 0 0 0 nan nan nan nan 1 1 1 0 1 0 0 0 nan nan 1 1 8 14 12 12 6 nan nan nan nan nan nan nan nan nan nan nan nan nan nan nan nan nan nan nan nan nan nan nan nan nan nan 0 1 4 3 3 5 11 29 29 43 61 79 79 94 105 105 123 141 189 189 277
4 6 7 6 6 5 1 nan 3 3 23 13 nan nan nan nan nan nan nan nan nan 0 1 0 0 nan 0 0 0 0 1 2 6 6 11 13 20 20 21 18 18 4 nan nan nan nan nan nan nan nan nan nan nan nan nan nan nan nan nan nan nan nan nan nan nan nan nan nan nan nan nan 2 9 9 21 34 64 64 86 110 110 130 143 185 185 264
4 6 6 8 8 8 4 1 22 22 24 2 nan nan nan nan nan nan 0 0 0 1 1 1 1 0 0 1 3 3 4 5 9 9 9 6 2 2 4 14 14 26 16 1 1 nan nan nan nan nan nan nan nan nan nan nan nan nan nan nan nan nan nan nan nan nan nan nan nan nan nan nan nan nan 1 12 38 38 70 109 109 137 144 159 159 237
5 3 5 7 7 6 6 20 41 41 nan nan nan nan 0 0 nan nan nan nan nan 1 1 0 0 nan nan 0 nan nan 1 8 10 10 4 1 1 1 0 0 0 0 2 12 12 19 4 nan nan nan nan nan nan nan nan nan nan nan nan nan nan nan nan nan nan nan nan nan nan nan nan nan nan nan nan nan nan nan 11 50 50 116 164 151 151 158
5 5 4 7 7 8 11 24 33 33 0 nan 2 2 3 3 0 0 nan nan nan nan nan nan nan nan nan nan nan nan 3 21 13 13 3 nan nan nan 1 2 2 1 0 2 2 11 14 2 2 nan nan nan nan nan nan nan nan nan nan nan nan nan nan nan nan nan nan nan nan nan nan nan nan nan nan nan nan nan 0 15 15 73 122 135 135 159
5 5 6 5 5 6 10 28 13 13 1 1 2 2 3 5 2 2 0 nan nan nan nan 0 0 0 nan nan nan nan 7 24 19 19 13 3 7 7 3 1 1 1 2 1 1 3 8 7 7 nan nan nan nan nan nan nan nan nan nan nan nan nan nan nan nan nan nan nan nan nan nan nan nan nan nan nan nan nan nan nan nan 19 30 59 59 133
4 5 6 5 5 4 11 16 4 4 0 1 2 2 3 7 5 5 3 1 1 0 nan nan nan 0 0 nan 0 0 15 16 5 5 4 4 5 5 3 2 2 1 1 2 2 3 4 8 8 2 nan nan nan nan nan nan nan nan nan nan nan nan nan nan nan nan nan nan nan nan nan nan nan nan nan nan nan nan nan nan nan nan nan 5 5 76
5 6 6 5 5 6 8 8 3 3 2 3 4 4 6 7 10 10 6 4 4 1 0 nan nan 0 1 0 7 7 26 11 2 2 nan nan 0 0 2 1 1 1 1 2 2 2 6 10 10 6 nan nan nan nan nan nan nan nan nan nan nan nan nan nan nan nan nan nan nan nan nan nan nan nan nan nan nan nan nan nan nan nan nan nan nan 26
5 6 6 4 4 6 8 7 4 4 6 10 12 12 12 11 11 11 8 5 5 3 1 0 0 nan 0 1 25 25 29 6 0 0 nan nan nan nan 1 1 1 0 0 1 1 2 5 22 22 17 5 nan nan nan nan nan nan nan nan nan nan nan nan nan nan nan nan nan nan nan nan nan nan nan nan nan nan nan nan nan nan nan nan nan nan nan
4 5 5 4 4 4 7 9 9 9 11 16 17 17 18 14 11 11 7 5 5 3 3 1 1 0 nan 0 31 31 24 2 nan nan nan nan nan nan 3 4 4 4 3 4 4 4 7 17 17 36 31 21 nan nan nan nan nan nan nan nan nan nan nan nan nan nan nan nan nan nan nan nan nan nan nan nan nan nan nan nan nan nan nan nan nan nan
5 6 6 3 3 3 7 12 15 15 16 22 21 21 17 11 10 10 8 8 8 5 4 2 2 0 nan 0 23 23 9 1 nan nan nan nan nan nan 4 7 7 6 8 9 9 11 14 14 14 19 19 30 41 41 15 7 7 nan nan nan nan nan nan nan nan nan nan nan nan nan nan nan nan nan nan nan nan nan nan nan nan nan nan nan nan nan
5 6 5 3 3 5 8 17 19 19 18 21 17 17 13 10 13 13 10 11 11 7 5 3 3 1 nan nan 9 9 5 1 0 0 nan nan nan nan 3 9 9 9 11 15 15 20 19 12 12 6 4 4 2 2 2 5 5 40 9 nan nan nan nan nan nan nan nan nan nan nan nan nan nan nan nan nan nan nan nan nan nan nan nan nan nan nan
6 7 7 8 8 10 14 20 22 22 19 16 13 13 9 11 14 14 14 12 12 7 6 6 6 2 1 nan 1 1 6 1 2 2 0 0 nan nan 3 13 13 15 18 21 21 21 18 9 9 5 3 2 0 0 0 0 0 10 25 15 15 nan nan nan nan nan nan nan nan nan nan nan nan nan nan nan nan nan nan nan nan nan nan nan nan nan
10 13 13 13 13 15 18 17 14 14 13 10 8 8 7 12 16 16 14 12 12 10 10 8 8 6 3 2 1 1 3 3 2 2 1 1 nan nan 2 16 16 27 24 18 18 15 10 7 7 6 6 6 4 4 3 2 2 2 7 17 17 13 nan nan nan nan nan nan nan nan nan nan nan nan nan nan nan nan nan nan nan nan nan nan nan nan
11 13 13 16 16 16 14 10 9 9 10 10 11 11 10 11 12 12 13 13 13 11 12 8 8 8 6 6 3 3 3 3 3 3 2 0 1 1 3 20 20 32 22 12 12 8 6 7 7 10 10 7 6 6 4 4 4 3 3 7 7 16 10 nan nan nan nan nan nan nan nan nan nan nan nan nan nan nan nan nan nan nan nan nan nan nan
23 23 22 17 17 13 10 7 9 9 13 17 13 13 11 10 10 10 10 11 11 11 11 12 12 9 12 10 8 8 5 4 5 5 3 2 2 2 4 18 18 21 11 6 6 6 7 10 10 13 14 9 7 7 5 3 3 2 3 3 3 7 10 2 2 nan nan nan nan nan nan nan nan nan nan nan nan nan nan nan nan nan nan nan nan nan
21 21 19 11 11 8 5 3 9 9 22 25 16 16 13 13 10 10 8 9 9 10 12 13 13 14 14 16 13 13 5 7 10 10 8 6 3 3 5 14 14 13 7 5 5 7 13 19 19 18 19 15 10 10 6 2 2 3 4 5 5 4 3 3 3 nan nan nan nan nan nan nan nan nan nan nan nan nan nan nan nan nan nan nan nan nan
17 16 6 nan nan nan 4 5 16 16 28 27 14 14 18 16 15 15 15 14 14 11 14 14 14 17 21 19 10 10 4 10 17 17 19 11 6 6 4 10 10 10 11 8 8 11 17 21 21 17 17 17 15 15 7 3 3 5 5 6 6 5 2 1 1 nan nan nan nan nan nan nan nan nan nan nan nan nan nan nan nan nan nan nan nan nan
11 12 nan nan nan nan 2 9 11 11 28 27 22 22 19 18 17 17 17 16 16 13 14 18 18 17 14 10 4 4 5 14 34 34 34 20 11 11 4 12 12 20 21 16 16 17 15 12 12 9 11 17 15 15 10 5 5 5 5 4 4 4 4 1 1 nan nan nan nan nan nan nan nan nan nan nan nan nan nan nan nan nan nan nan nan nan
3 1 nan nan nan 0 10 15 19 19 24 22 17 17 14 14 14 14 14 16 16 12 14 13 13 5 0 0 2 2 6 17 36 36 38 26 16 16 10 19 19 33 30 20 20 11 6 3 3 3 6 15 17 17 12 7 7 7 3 2 2 2 4 3 3 0 nan nan nan nan nan nan nan nan nan nan nan nan nan nan nan nan nan nan nan nan
3 1 1 1 1 15 21 21 28 28 20 10 6 6 7 22 26 26 12 3 3 4 6 4 4 2 0 2 3 3 4 5 6 6 24 26 27 27 21 36 36 42 25 8 8 1 1 1 1 0 2 9 19 19 14 11 11 7 2 0 0 1 2 3 3 2 nan nan nan nan nan nan nan nan nan nan nan nan nan nan nan nan nan nan nan nan
13 12 13 20 20 43 47 52 52 52 41 19 22 22 33 33 5 5 nan nan nan 4 7 3 3 2 1 1 2 2 2 nan nan nan 24 30 26 26 14 24 24 21 11 2 2 0 0 nan nan nan nan 5 21 21 18 15 15 8 2 0 0 0 1 1 1 2 1 nan nan nan nan nan nan nan nan nan nan nan nan nan nan nan nan nan nan nan
25 27 33 39 39 42 43 46 47 47 53 49 31 31 31 8 0 0 3 6 6 10 9 4 4 2 1 0 0 0 0 0 1 1 39 25 8 8 4 5 5 6 7 1 1 1 2 0 0 nan nan 2 16 16 20 18 18 9 2 0 0 1 1 1 1 nan 0 2 nan nan nan nan nan nan nan nan nan nan nan nan nan nan nan nan nan nan
21 23 25 28 28 33 37 39 40 40 40 48 61 61 40 11 7 7 8 10 10 15 12 4 4 3 2 0 0 0 nan nan 18 18 35 6 2 2 1 0 0 2 5 2 2 3 7 2 2 nan nan 5 11 11 19 19 19 11 2 0 0 0 1 1 1 nan nan nan 1 1 nan nan nan nan nan nan nan nan nan nan nan nan nan nan nan nan
17 18 21 24 24 31 36 39 34 34 33 38 45 45 33 14 13 13 12 19 19 16 10 7 7 6 3 1 0 0 nan nan 33 33 4 2 2 2 nan nan nan 4 8 5 5 2 2 1 1 2 6 21 17 17 15 16 16 10 5 0 0 0 0 0 0 nan nan nan 0 0 0 nan nan nan nan nan nan nan nan nan nan nan nan nan nan nan
8 14 17 20 20 27 30 21 28 28 29 29 32 32 28 14 16 16 19 25 25 16 10 10 10 8 7 3 0 0 nan nan 10 10 0 3 1 1 nan 1 1 7 10 8 8 1 0 2 2 5 13 27 15 15 7 10 10 6 5 5 5 1 0 nan nan nan nan nan nan nan nan nan nan nan nan nan nan nan nan nan nan nan nan nan nan nan
1 3 3 4 4 4 6 1 11 11 22 24 24 24 19 13 18 18 18 21 21 19 10 8 8 8 11 5 0 0 nan nan 2 2 3 6 2 2 2 3 3 6 9 12 12 2 1 1 1 6 14 14 10 10 9 11 11 8 3 6 6 10 6 0 0 nan nan nan nan nan nan nan nan nan nan nan nan nan nan nan nan nan nan nan nan nan
2 1 1 1 1 0 nan 1 1 1 1 2 3 3 8 9 7 7 6 9 9 14 13 11 11 10 12 11 8 8 5 2 17 17 24 11 9 9 7 8 8 9 6 10 10 12 9 5 5 5 4 5 8 8 11 20 20 15 16 14 14 13 16 13 13 9 5 5 3 3 nan nan nan nan nan nan nan nan nan nan nan nan nan nan nan nan
3 1 1 0 0 nan 0 0 1 1 1 1 1 1 nan 3 9 9 5 6 6 10 14 11 11 9 9 7 5 5 5 5 21 21 27 12 10 10 8 10 10 10 6 6 6 9 8 7 7 5 4 5 6 6 10 17 17 28 20 12 12 7 9 15 15 13 12 7 6 6 1 nan nan nan nan nan nan nan nan nan nan nan nan nan nan nan
1 2 1 0 0 0 0 0 0 0 1 1 2 2 1 1 1 1 4 4 4 8 10 13 13 9 8 5 3 3 2 3 18 18 25 10 10 10 11 9 9 11 10 8 8 8 6 6 6 7 5 5 5 5 6 10 10 18 6 5 5 1 4 12 12 20 18 8 2 2 1 nan nan nan nan nan nan nan nan nan nan nan nan nan nan nan
0 0 0 0 0 0 0 0 0 0 0 1 1 1 1 1 1 1 0 2 2 6 7 8 8 8 9 7 3 3 3 1 13 13 24 10 12 12 10 10 10 11 10 8 8 5 6 7 7 11 9 7 5 5 6 nan nan nan nan 7 7 8 6 10 10 19 23 14 0 0 nan nan nan nan nan nan nan nan nan nan nan nan nan nan nan nan
nan nan 1 0 0 0 0 0 0 0 1 0 nan nan 0 0 1 1 0 0 0 3 7 6 6 4 4 3 3 3 3 1 9 9 20 9 9 9 10 11 11 14 10 7 7 8 10 11 11 15 15 12 9 9 8 3 3 3 8 23 23 23 18 16 16 16 22 20 6 6 nan nan nan nan nan nan nan nan nan nan nan nan nan nan nan nan
nan nan 0 0 0 0 0 nan 0 0 0 nan nan nan 0 nan 0 0 0 nan nan nan 1 5 5 4 8 2 2 2 3 2 2 2 10 5 5 5 8 8 8 12 7 6 6 9 11 13 13 10 11 13 13 13 13 16 16 18 27 37 37 35 23 19 19 15 17 21 13 13 1 nan nan nan 0 nan nan nan nan nan nan nan nan nan nan nan
nan 0 0 0 0 nan nan nan nan nan nan nan nan nan nan nan nan nan nan nan nan nan nan nan nan nan 4 10 4 4 2 1 1 1 1 nan 1 1 4 3 3 4 5 4 4 7 8 8 8 8 10 11 16 16 21 22 22 26 30 36 36 35 30 22 22 20 18 15 14 14 8 0 nan nan nan nan nan nan nan nan nan nan nan nan nan nan
nan nan 0 0 0 nan nan nan nan nan nan nan nan nan nan nan 0 0 nan nan nan nan nan nan nan nan nan nan 3 3 4 nan nan nan nan nan nan nan nan 0 0 0 2 2 2 5 6 8 8 9 11 11 13 13 15 20 20 28 28 25 25 22 28 32 32 35 30 12 14 14 13 0 nan nan nan nan nan nan nan nan nan nan nan nan nan nan
1 0 0 1 1 nan nan nan nan nan nan nan 0 0 nan nan nan nan nan nan nan nan nan nan nan nan nan 0 nan nan nan nan nan nan nan nan nan nan nan nan nan nan 2 6 6 9 8 7 7 12 14 13 15 15 14 17 17 24 30 18 18 21 27 27 27 37 34 16 10 10 14 8 0 0 nan nan nan nan nan nan nan nan nan nan nan nan
2 0 0 0 0 0 nan nan nan nan nan nan nan nan nan nan nan nan nan nan nan nan nan nan nan nan nan nan nan nan nan nan nan nan nan nan nan nan nan nan nan nan 4 8 8 10 9 11 11 12 9 9 13 13 14 13 13 23 26 19 19 22 27 28 28 35 38 25 23 23 25 20 7 7 0 nan nan nan nan nan nan nan 0 nan nan nan
6 2 0 nan nan nan nan nan 0 0 nan nan nan nan nan nan nan nan nan nan nan nan nan 0 0 nan nan nan nan nan nan nan nan nan nan nan nan nan nan nan nan 0 5 8 8 8 8 11 11 12 10 9 10 10 8 9 9 10 13 16 16 26 26 25 25 8 21 28 34 34 35 26 14 14 2 nan nan nan nan nan nan 0 7 2 2 nan
2 1 0 nan nan nan 0 0 0 0 nan nan nan nan nan nan nan nan nan nan nan 0 0 nan nan nan nan nan nan nan nan nan nan nan nan nan nan nan nan nan nan nan 2 7 7 5 6 9 9 8 8 9 12 12 9 7 7 6 7 15 15 28 27 25 25 10 8 17 24 24 23 26 21 21 8 1 nan nan nan 3 3 10 16 15 15 3
2 1 0 nan nan nan nan nan nan nan nan nan nan nan nan nan nan nan nan nan nan 0 0 nan nan nan nan nan nan nan nan nan nan nan nan nan nan nan nan nan nan nan nan 3 3 4 3 3 3 4 4 8 9 9 8 6 6 5 5 10 10 28 29 29 29 17 10 16 24 24 22 21 26 26 22 10 0 0 nan 2 2 11 18 27 27 17
1 1 0 0 0 0 nan nan nan nan nan nan nan nan nan nan nan nan nan nan nan nan nan nan nan nan nan nan nan nan nan nan nan nan nan nan nan nan nan nan nan nan nan 0 0 1 1 1 1 0 0 3 6 6 7 6 6 6 7 12 12 32 28 24 24 14 13 11 14 14 19 11 15 15 28 26 13 13 3 5 5 8 11 21 21 26
1 1 1 0 0 0 1 nan nan nan nan nan nan nan nan nan nan nan nan nan nan nan nan nan nan nan nan nan nan nan nan nan nan nan nan nan nan nan nan nan nan nan nan nan nan nan nan nan nan nan nan 0 2 2 3 6 6 7 11 32 32 45 33 16 16 10 12 12 10 10 10 7 18 18 35 31 22 22 12 13 13 13 10 13 13 25
1 1 0 0 0 0 nan nan nan nan nan nan nan nan nan nan nan nan nan nan nan nan nan nan nan nan nan nan nan nan nan nan nan nan nan nan nan nan nan nan nan nan nan nan nan nan nan nan nan nan nan nan 1 1 0 1 1 6 19 42 42 52 48 33 33 24 19 28 23 23 6 2 14 14 32 34 28 28 15 12 12 11 10 11 11 20
2 2 0 0 0 nan nan nan nan nan nan nan nan nan nan nan nan nan nan nan nan nan 0 nan nan nan nan nan nan nan nan nan nan nan nan nan nan nan nan nan nan nan nan nan nan nan nan nan nan nan nan nan 0 0 nan nan nan 18 33 35 35 41 46 47 47 40 33 28 18 18 13 8 11 11 23 31 32 32 25 10 10 nan 1 4 4 14
1 1 0 nan nan nan nan nan nan nan nan nan nan nan nan 0 13 13 nan nan nan nan nan nan nan nan nan nan nan nan 1 1 nan nan nan nan nan nan nan nan nan nan nan nan nan nan nan nan nan nan nan nan nan nan nan 10 10 12 11 20 20 28 30 25 25 17 12 9 7 7 10 14 15 15 20 21 24 24 30 18 18 0 nan nan nan 3
1 1 0 nan nan nan nan nan nan nan nan nan nan nan nan nan nan nan nan nan nan nan nan nan nan nan nan nan nan nan nan nan nan nan nan nan nan nan nan nan nan nan nan nan nan nan nan nan nan nan nan nan nan nan 0 0 0 nan nan 8 8 17 12 6 6 3 1 1 1 1 5 10 13 13 21 22 20 20 25 22 22 3 nan nan nan nan
3 1 0 nan nan nan nan nan nan nan nan nan nan nan nan nan nan nan nan nan nan nan nan nan nan nan nan nan nan nan 0 nan nan nan nan nan nan nan 0 0 0 0 nan nan nan nan nan nan nan nan nan nan nan nan nan nan nan nan nan 4 4 3 2 1 1 0 0 0 nan nan 2 8 14 14 24 24 18 18 18 19 19 15 nan nan nan nan
CIN
-2 -1 nan -9 -9 nan nan nan nan nan nan -5 -5 -5 -6 -6 -5 -5 -4 -1 -1 -0 -0 -0 -0 -1 -10 nan nan nan nan nan nan nan nan nan nan nan nan nan nan nan nan nan nan nan nan nan nan nan nan nan nan nan nan -153 -153 -116 -76 -55 -55 -37 -25 -23 -23 -24 -37 -50 -57 -57 -64 -79 -116 -116 -157 -187 -196 -196 -186 -170 -170 -154 -148 -130 -130 -86
-4 -5 nan -12 -12 nan nan nan nan nan nan -3 -2 -2 -4 -5 -4 -4 -4 -1 -1 -0 -0 -0 -0 -0 -0 -3 nan nan nan nan nan nan nan nan nan nan nan nan nan nan nan nan nan nan nan nan nan nan nan nan nan nan nan nan nan -147 -102 -74 -74 -42 -28 -18 -18 -17 -24 -32 -50 -50 -71 -103 -140 -140 -163 -180 -182 -182 -174 -159 -159 -145 -140 -112 -112 -67
-3 -5 -7 -10 -10 nan nan nan nan nan nan -2 -1 -1 -5 -5 -3 -3 -3 -5 -5 -2 -0 -0 -0 -0 -0 -0 -0 -0 -0 -0 -0 -0 -0 -0 nan nan nan nan nan nan nan nan nan nan nan nan nan nan nan nan nan nan nan nan nan nan nan -139 -139 -101 -75 -47 -47 -38 -40 -51 -76 -76 -110 -150 -177 -177 -161 -152 -152 -152 -154 -147 -147 -135 -122 -98 -98 -48
-4 -3 -4 -6 -6 -9 nan nan nan nan -10 -2 -3 -3 -8 -5 -4 -4 -6 nan nan -7 -3 -1 -1 -0 -0 -0 -0 -0 -0 -0 -0 -0 -0 -0 -0 -0 nan nan nan nan nan nan nan nan nan nan nan nan nan nan nan nan nan nan nan nan nan nan nan nan -158 -134 -134 -109 -100 -110 -143 -143 -175 -187 -178 -178 -152 -136 -140 -140 -143 -141 -141 -132 -110 -79 -79 -38
-4 -1 -0 -4 -4 -9 nan nan nan nan -3 -1 -5 -5 nan -7 -7 -7 nan nan nan nan -7 -6 -6 -5 -1 -1 -0 -0 nan nan -0 -0 -0 -0 -0 -0 -0 nan nan nan nan nan nan nan nan nan nan nan nan nan nan nan nan nan nan nan nan nan nan nan nan nan nan -198 -190 -185 -207 -207 -210 -198 -163 -163 -142 -133 -135 -135 -130 -123 -123 -116 -105 -69 -69 -26
-4 -1 -0 -0 -0 -0 -4 nan -7 -7 -1 -2 nan nan nan nan nan nan nan nan nan -6 -5 -7 -7 nan -5 -5 -0 -0 -0 -0 -0 -0 -0 -0 -0 -0 -0 -0 -0 -0 nan nan nan nan nan nan nan nan nan nan nan nan nan nan nan nan nan nan nan nan nan nan nan nan nan nan nan nan nan -204 -176 -176 -155 -149 -135 -135 -119 -103 -103 -98 -93 -62 -62 -22
-3 -2 -1 -0 -0 -0 -1 -4 -1 -1 -0 -3 nan nan nan nan nan nan -7 -4 -4 -3 -3 -6 -6 -8 -8 -4 -0 -0 -0 -0 -0 -0 -0 -0 -0 -0 -0 -0 -0 -0 -0 -0 -0 nan nan nan nan nan nan nan nan nan nan nan nan nan nan nan nan nan nan nan nan nan nan nan nan nan nan nan nan nan -180 -171 -153 -153 -118 -89 -89 -80 -79 -66 -66 -21
-1 -3 -4 -4 -4 -2 -2 -3 -1 -1 nan nan nan nan -7 -5 nan nan nan nan nan -9 -7 -6 -6 nan nan -9 nan nan -4 -1 -2 -2 -0 -0 -0 -0 -0 -0 -0 -0 -0 -0 -0 -0 -0 nan nan nan nan nan nan nan nan nan nan nan nan nan nan nan nan nan nan nan nan nan nan nan nan nan nan nan nan nan nan nan -186 -121 -121 -68 -42 -43 -43 -37
-3 -2 -2 -6 -6 -3 -1 -1 -3 -3 -16 nan -5 -5 -4 -4 -6 -6 nan nan nan nan nan nan nan nan nan nan nan nan -3 -0 -0 -0 -0 nan nan nan -0 -0 -0 -0 -0 -0 -0 -0 -0 -0 -0 nan nan nan nan nan nan nan nan nan nan nan nan nan nan nan nan nan nan nan nan nan nan nan nan nan nan nan nan nan -230 -181 -181 -103 -58 -42 -42 -23
-4 -3 -2 -3 -3 -4 -2 -1 -8 -8 -19 -11 -11 -11 -9 -3 -3 -3 -4 nan nan nan nan -6 -6 -6 nan nan nan nan -3 -0 -0 -0 -0 -0 -0 -0 -0 -0 -0 -0 -0 -0 -0 -0 -0 -0 -0 nan nan nan nan nan nan nan nan nan nan nan nan nan nan nan nan nan nan nan nan nan nan nan nan nan nan nan nan nan nan nan nan -188 -139 -76 -76 -35
-1 -2 -2 -2 -2 -5 -5 -4 -12 -12 -23 -11 -8 -8 -6 -5 -2 -2 -1 -3 -3 -5 nan nan nan -7 -5 nan -8 -8 -2 -1 -2 -2 -0 -0 -0 -0 -0 -0 -0 -0 -0 -0 -0 -0 -0 -0 -0 -2 nan nan nan nan nan nan nan nan nan nan nan nan nan nan nan nan nan nan nan nan nan nan nan nan nan nan nan nan nan nan nan nan nan -137 -137 -64
-1 -1 -2 -2 -2 -2 -4 -6 -11 -11 -13 -5 -2 -2 -3 -5 -4 -4 -1 -1 -1 -4 -4 nan nan -8 -8 -6 -3 -3 -1 -1 -3 -3 nan nan -3 -3 -1 -1 -1 -0 -0 -0 -0 -0 -0 -1 -1 -3 nan nan nan nan nan nan nan nan nan nan nan nan nan nan nan nan nan nan nan nan nan nan nan nan nan nan nan nan nan nan nan nan nan nan nan -106
-1 -2 -2 -2 -2 -2 -3 -4 -4 -4 -3 -2 -1 -1 -1 -3 -4 -4 -3 -2 -2 -3 -5 -6 -6 nan -13 -12 -2 -2 -0 -2 -5 -5 nan nan nan nan -3 -3 -3 -4 -4 -3 -3 -3 -1 -0 -0 -2 -8 nan nan nan nan nan nan nan nan nan nan nan nan nan nan nan nan nan nan nan nan nan nan nan nan nan nan nan nan nan nan nan nan nan nan nan
-1 -2 -2 -2 -2 -2 -3 -2 -1 -1 -2 -1 -1 -1 -1 -2 -3 -3 -3 -2 -2 -4 -6 -5 -5 -7 nan -16 -3 -3 -0 -3 nan nan nan nan nan nan -2 -2 -2 -2 -3 -2 -2 -3 -3 -2 -2 -1 -2 -4 nan nan nan nan nan nan nan nan nan nan nan nan nan nan nan nan nan nan nan nan nan nan nan nan nan nan nan nan nan nan nan nan nan nan
-2 -2 -1 -2 -2 -2 -2 -2 -1 -1 -2 -2 -2 -2 -2 -2 -2 -2 -1 -1 -1 -3 -5 -5 -5 -6 nan -16 -5 -5 -2 -4 nan nan nan nan nan nan -4 -1 -1 -2 -2 -2 -2 -3 -3 -3 -3 -1 -1 -0 -0 -0 -0 -0 -0 nan nan nan nan nan nan nan nan nan nan nan nan nan nan nan nan nan nan nan nan nan nan nan nan nan nan nan nan nan
-3 -3 -2 -2 -2 -2 -3 -2 -1 -1 -2 -3 -3 -3 -1 -1 -1 -1 -1 -1 -1 -2 -3 -3 -3 -3 nan nan -15 -15 -8 -5 -5 -5 nan nan nan nan -5 -1 -1 -1 -2 -2 -2 -2 -3 -4 -4 -4 -3 -1 -0 -0 -0 -0 -0 -0 -0 nan nan nan nan nan nan nan nan nan nan nan nan nan nan nan nan nan nan nan nan nan nan nan nan nan nan nan
-4 -3 -2 -2 -2 -2 -3 -3 -2 -2 -2 -3 -4 -4 -3 -2 -1 -1 -1 -1 -1 -2 -2 -1 -1 -2 -3 nan -19 -19 -14 -7 -4 -4 -3 -4 nan nan -8 -1 -1 -0 -1 -1 -1 -2 -3 -4 -4 -4 -4 -1 -1 -1 -0 -0 -0 -0 -0 -0 -0 nan nan nan nan nan nan nan nan nan nan nan nan nan nan nan nan nan nan nan nan nan nan nan nan nan
-4 -1 -2 -2 -2 -1 -1 -2 -4 -4 -4 -3 -4 -4 -6 -5 -3 -3 -2 -2 -2 -2 -1 -1 -1 -1 -2 -3 -12 -12 -19 -6 -3 -3 -2 -3 nan nan -10 -2 -2 -0 -1 -2 -2 -4 -4 -4 -4 -4 -2 -0 -0 -0 -1 -0 -0 -0 -0 -0 -0 -0 nan nan nan nan nan nan nan nan nan nan nan nan nan nan nan nan nan nan nan nan nan nan nan nan
-4 -4 -4 -1 -1 -0 -0 -2 -3 -3 -2 -3 -3 -3 -3 -5 -5 -5 -4 -3 -3 -2 -1 -1 -1 -1 -2 -2 -7 -7 -17 -7 -1 -1 -1 -3 -6 -6 -10 -2 -2 -0 -1 -3 -3 -5 -5 -4 -4 -2 -0 -0 -0 -0 -0 -0 -0 -0 -0 -0 -0 -0 -0 nan nan nan nan nan nan nan nan nan nan nan nan nan nan nan nan nan nan nan nan nan nan nan
-0 -1 -0 -0 -0 -0 -0 -1 -2 -2 -1 -2 -2 -2 -3 -5 -5 -5 -5 -4 -4 -3 -3 -1 -1 -1 -1 -3 -7 -7 -11 -5 -1 -1 -1 -3 -7 -7 -12 -3 -3 -1 -2 -5 -5 -7 -5 -4 -4 -2 -0 -0 -0 -0 -0 -0 -0 -0 -0 -0 -0 -0 -0 -0 -0 nan nan nan nan nan nan nan nan nan nan nan nan nan nan nan nan nan nan nan nan nan
-0 -0 -1 -2 -2 -1 -1 -2 -3 -3 -1 -1 -2 -2 -4 -4 -4 -4 -5 -4 -4 -3 -3 -1 -1 -1 -2 -2 -4 -4 -11 -4 -1 -1 -1 -3 -8 -8 -14 -7 -7 -2 -3 -6 -6 -9 -5 -3 -3 -2 -1 -0 -0 -0 -0 -0 -0 -0 -0 -0 -0 -0 -0 -0 -0 nan nan nan nan nan nan nan nan nan nan nan nan nan nan nan nan nan nan nan nan nan
-0 -0 -8 nan nan nan -1 -4 -2 -2 -1 -1 -3 -3 -2 -2 -2 -2 -2 -2 -2 -2 -1 -1 -1 -1 -2 -1 -7 -7 -16 -6 -1 -1 -1 -2 -5 -5 -17 -12 -12 -3 -2 -6 -6 -8 -4 -2 -2 -2 -0 -0 -0 -0 -0 -0 -0 -0 -0 -0 -0 -0 -0 -0 -0 nan nan nan nan nan nan nan nan nan nan nan nan nan nan nan nan nan nan nan nan nan
-2 -2 nan nan nan nan -9 -5 -7 -7 -1 -0 -0 -0 -2 -2 -1 -1 -1 -1 -1 -1 -1 -2 -2 -4 -4 -4 -14 -14 -21 -12 -1 -1 -0 -0 -4 -4 -17 -11 -11 -2 -1 -5 -5 -5 -4 -3 -3 -2 -0 -0 -0 -0 -0 -0 -0 -0 -0 -0 -0 -0 -0 -0 -0 nan nan nan nan nan nan nan nan nan nan nan nan nan nan nan nan nan nan nan nan nan
-11 -13 nan nan nan -20 -7 -4 -4 -4 -3 -2 -4 -4 -6 -5 -3 -3 -1 -1 -1 -2 -3 -4 -4 -5 -13 -16 -16 -16 -19 -14 -3 -3 -0 -0 -3 -3 -12 -6 -6 -1 -1 -4 -4 -4 -4 -5 -5 -4 -2 -0 -0 -0 -0 -0 -0 -0 -0 -0 -0 -0 -0 -0 -0 -0 nan nan nan nan nan nan nan nan nan nan nan nan nan nan nan nan nan nan nan nan
-13 -16 -16 -18 -18 -7 -4 -5 -4 -4 -7 -12 -19 -19 -20 -3 -1 -1 -4 -7 -7 -5 -4 -3 -3 -3 -10 -5 -7 -7 -17 -23 -13 -13 -1 -0 -2 -2 -5 -1 -1 -0 -1 -6 -6 -9 -6 -5 -5 -7 -4 -0 -0 -0 -0 -0 -0 -0 -0 -0 -0 -0 -0 -0 -0 -0 nan nan nan nan nan nan nan nan nan nan nan nan nan nan nan nan nan nan nan nan
-0 -0 -0 -0 -0 -0 -0 -0 -0 -0 -0 -6 -6 -6 -3 -1 -5 -5 nan nan nan -3 -3 -3 -3 -3 -5 -7 -6 -6 -10 nan nan nan -1 -0 -1 -1 -4 -2 -2 -0 -1 -8 -8 -10 -7 nan nan nan nan -2 -0 -0 -0 -0 -0 -0 -0 -0 -0 -0 -0 -0 -0 -0 -0 nan nan nan nan nan nan nan nan nan nan nan nan nan nan nan nan nan nan nan
-0 -0 -0 -0 -0 -0 -0 -0 -0 -0 -0 -0 -1 -1 -3 -4 -9 -9 -3 -2 -2 -1 -1 -2 -2 -3 -5 -8 -10 -10 -12 -22 -17 -17 -0 -0 -0 -0 -4 -5 -5 -2 -2 -6 -6 -8 -4 -5 -5 nan nan -4 -1 -1 -0 -0 -0 -0 -0 -0 -0 -0 -0 -0 -0 nan -0 -0 nan nan nan nan nan nan nan nan nan nan nan nan nan nan nan nan nan nan
-0 -0 -0 -0 -0 -0 -0 -0 -0 -0 -0 -0 -0 -0 -0 -3 -2 -2 -1 -1 -1 -1 -0 -1 -1 -2 -3 -5 -6 -6 nan nan -5 -5 -0 -0 -0 -0 -3 -9 -9 -5 -2 -5 -5 -6 -0 -4 -4 nan nan -6 -3 -3 -0 -0 -0 -0 -0 -0 -0 -0 -0 -0 -0 nan nan nan -0 -0 nan nan nan nan nan nan nan nan nan nan nan nan nan nan nan nan
-0 -0 -0 -0 -0 -0 -0 -0 -0 -0 -0 -0 -0 -0 -0 -1 -0 -0 -0 -0 -0 -0 -0 -0 -0 -0 -2 -3 -6 -6 nan nan -3 -3 -6 -2 -1 -1 nan nan nan -5 -2 -3 -3 -8 -7 -10 -10 -14 -12 -4 -3 -3 -2 -0 -0 -0 -0 -0 -0 -0 -0 -0 -0 nan nan nan -0 -0 -0 nan nan nan nan nan nan nan nan nan nan nan nan nan nan nan
-0 -0 -0 -0 -0 -0 -0 -0 -0 -0 -0 -0 -0 -0 -0 -0 -0 -0 -0 -0 -0 -0 -0 -0 -0 -0 -1 -2 -8 -8 nan nan -12 -12 -18 -2 -4 -4 nan -8 -8 -3 -2 -2 -2 -7 -12 -17 -17 -21 -15 -4 -4 -4 -5 -3 -3 -2 -1 -0 -0 -0 -1 nan nan nan nan nan nan nan nan nan nan nan nan nan nan nan nan nan nan nan nan nan nan nan
-4 -3 -3 -4 -4 -14 -11 -20 -0 -0 -0 -0 -0 -0 -0 -0 -0 -0 -0 -0 -0 -0 -0 -0 -0 -0 -0 -1 -2 -2 nan nan -20 -20 -14 -2 -4 -4 -7 -4 -4 -6 -4 -1 -1 -2 -5 -13 -13 -19 -15 -8 -5 -5 -4 -3 -3 -3 -3 -1 -1 -1 -1 -3 -3 nan nan nan nan nan nan nan nan nan nan nan nan nan nan nan nan nan nan nan nan nan
-5 -1 -3 -4 -4 -12 nan -3 -5 -5 -3 -1 -0 -0 -0 -0 -0 -0 -0 -0 -0 -0 -0 -0 -0 -0 -0 -0 -0 -0 -0 -12 -3 -3 -1 -1 -2 -2 -4 -3 -3 -3 -7 -4 -4 -1 -0 -1 -1 -6 -12 -10 -7 -7 -3 -1 -1 -4 -3 -2 -2 -2 -1 -1 -1 -0 -0 -0 -1 -1 nan nan nan nan nan nan nan nan nan nan nan nan nan nan nan nan
-0 -2 -5 -7 -7 nan -12 -10 -4 -4 -1 -2 -3 -3 nan -2 -0 -0 -0 -0 -0 -0 -0 -0 -0 -0 -0 -0 -0 -0 -1 -5 -0 -0 -0 -2 -1 -1 -3 -2 -2 -2 -5 -6 -6 -4 -2 -2 -2 -4 -7 -10 -9 -9 -4 -2 -2 -2 -5 -3 -3 -3 -3 -1 -1 -1 -0 -0 -0 -0 -1 nan nan nan nan nan nan nan nan nan nan nan nan nan nan nan
-7 -5 -6 -8 -8 -11 -9 -10 -9 -9 -4 -2 -0 -0 -4 -5 -6 -6 -1 -1 -1 -0 -1 -0 -0 -0 -0 -0 -0 -0 -0 -3 -0 -0 -0 -1 -1 -1 -1 -2 -2 -2 -2 -2 -2 -3 -3 -4 -4 -3 -4 -7 -11 -11 -10 -5 -5 -4 -14 -11 -11 -7 -3 -2 -2 -1 -1 -1 -1 -1 -1 nan nan nan nan nan nan nan nan nan nan nan nan nan nan nan
-7 -6 -7 -11 -11 -10 -9 -11 -9 -9 -6 -4 -2 -2 -1 -3 -6 -6 -11 -7 -7 -2 -2 -2 -2 -1 -0 -0 -0 -0 -0 -4 -0 -0 -0 -0 -0 -0 -1 -2 -2 -2 -1 -1 -1 -2 -2 -3 -3 -1 -2 -3 -9 -9 -15 nan nan nan nan -16 -16 -10 -7 -3 -3 -1 -1 -1 -1 -1 nan nan nan nan nan nan nan nan nan nan nan nan nan nan nan nan
nan nan -6 -10 -10 -6 -6 -4 -5 -5 -4 -6 nan nan -5 -6 -6 -6 -12 -16 -16 -6 -0 -2 -2 -3 -3 -2 -0 -0 -0 -4 -0 -0 -0 -1 -0 -0 -0 -1 -1 -1 -0 -0 -0 -1 -1 -1 -1 -1 -1 -1 -4 -4 -12 -23 -23 -18 -11 -8 -8 -8 -8 -6 -6 -3 -1 -1 -2 -2 nan nan nan nan nan nan nan nan nan nan nan nan nan nan nan nan
nan nan -7 -10 -10 -7 -4 nan -6 -6 -6 nan nan nan -6 nan -11 -11 -11 nan nan nan -7 -2 -2 -2 -0 -6 -5 -5 -3 -3 -6 -6 -1 -3 -1 -1 -0 -0 -0 -0 -0 -0 -0 -0 -0 -0 -0 -1 -1 -1 -2 -2 -4 -7 -7 -6 -4 -5 -5 -6 -9 -10 -10 -7 -3 -1 -3 -3 -9 nan nan nan -22 nan nan nan nan nan nan nan nan nan nan nan
nan -6 -7 -10 -10 nan nan nan nan nan nan nan nan nan nan nan nan nan nan nan nan nan nan nan nan nan -6 -0 -7 -7 -10 -11 -11 -11 -8 nan -4 -4 -0 -0 -0 -0 -1 -0 -0 -0 -0 -0 -0 -0 -1 -2 -1 -1 -1 -2 -2 -2 -2 -4 -4 -6 -8 -10 -10 -8 -4 -5 -5 -5 -6 -13 nan nan nan nan nan nan nan nan nan nan nan nan nan nan
nan nan -9 -5 -5 nan nan nan nan nan nan nan nan nan nan nan -14 -14 nan nan nan nan nan nan nan nan nan nan -6 -6 -5 nan nan nan nan nan nan nan nan -1 -1 -1 -2 -2 -2 -1 -0 -0 -0 -0 -0 -1 -2 -2 -3 -2 -2 -1 -2 -4 -4 -6 -7 -7 -7 -5 -3 -8 -7 -7 -8 -16 nan nan nan nan nan nan nan nan nan nan nan nan nan nan
-5 -8 -7 -1 -1 nan nan nan nan nan nan nan -8 -8 nan nan nan nan nan nan nan nan nan nan nan nan nan -12 nan nan nan nan nan nan nan nan nan nan nan nan nan nan -2 -2 -2 -1 -1 -1 -1 -1 -0 -1 -1 -1 -2 -2 -2 -2 -1 -2 -2 -2 -4 -6 -6 -5 -4 -8 -13 -13 -10 -13 -26 -26 nan nan nan nan nan nan nan nan nan nan nan nan
-2 -8 -6 -6 -6 -6 nan nan nan nan nan nan nan nan nan nan nan nan nan nan nan nan nan nan nan nan nan nan nan nan nan nan nan nan nan nan nan nan nan nan nan nan -2 -1 -1 -1 -1 -0 -0 -1 -1 -1 -0 -0 -1 -1 -1 -0 -0 -1 -1 -1 -4 -5 -5 -6 -3 -3 -3 -3 -3 -3 -10 -10 -21 nan nan nan nan nan nan nan -9 nan nan nan
-0 -1 -6 nan nan nan nan nan -16 -16 nan nan nan nan nan nan nan nan nan nan nan nan nan -11 -11 nan nan nan nan nan nan nan nan nan nan nan nan nan nan nan nan -7 -2 -1 -1 -1 -1 -0 -0 -0 -1 -1 -0 -0 -1 -1 -1 -1 -0 -1 -1 -1 -3 -7 -7 -15 -4 -1 -1 -1 -1 -1 -1 -1 -4 nan nan nan nan nan nan -20 -8 -12 -12 nan
-1 -3 -8 nan nan nan -14 -11 -11 -11 nan nan nan nan nan nan nan nan nan nan nan -10 -8 nan nan nan nan nan nan nan nan nan nan nan nan nan nan nan nan nan nan nan -6 -1 -1 -1 -1 -0 -0 -1 -1 -1 -0 -0 -0 -1 -1 -1 -1 -1 -1 -0 -1 -5 -5 -10 -5 -2 -2 -2 -3 -2 -2 -2 -2 -7 nan nan nan -29 -29 -16 -7 -7 -7 -14
-3 -6 -11 nan nan nan nan nan nan nan nan nan nan nan nan nan nan nan nan nan nan -9 -9 nan nan nan nan nan nan nan nan nan nan nan nan nan nan nan nan nan nan nan nan -3 -3 -1 -1 -0 -0 -1 -1 -1 -0 -0 -0 -0 -0 -1 -2 -1 -1 -0 -0 -2 -2 -5 -3 -2 -2 -2 -3 -4 -3 -3 -3 -4 -13 -13 nan -24 -24 -15 -9 -5 -5 -7
-10 -9 -8 -8 -8 -9 nan nan nan nan nan nan nan nan nan nan nan nan nan nan nan nan nan nan nan nan nan nan nan nan nan nan nan nan nan nan nan nan nan nan nan nan nan -9 -9 -3 -1 -1 -1 -1 -1 -1 -0 -0 -0 -0 -0 -0 -1 -1 -1 -1 -2 -5 -5 -5 -3 -2 -2 -2 -2 -4 -4 -4 -3 -4 -9 -9 -17 -17 -17 -16 -14 -8 -8 -4
-8 -8 -7 -9 -9 -11 -6 nan nan nan nan nan nan nan nan nan nan nan nan nan nan nan nan nan nan nan nan nan nan nan nan nan nan nan nan nan nan nan nan nan nan nan nan nan nan nan nan nan nan nan nan -1 -1 -1 -1 -0 -0 -0 -0 -1 -1 -1 -3 -10 -10 -11 -4 -4 -4 -4 -3 -2 -0 -0 -0 -3 -7 -7 -13 -13 -13 -12 -16 -14 -14 -4
-9 -8 -10 -11 -11 -10 nan nan nan nan nan nan nan nan nan nan nan nan nan nan nan nan nan nan nan nan nan nan nan nan nan nan nan nan nan nan nan nan nan nan nan nan nan nan nan nan nan nan nan nan nan nan -0 -0 -2 -2 -2 -0 -0 -0 -0 -0 -1 -3 -3 -5 -3 -1 -1 -1 -3 -3 -1 -1 -0 -1 -4 -4 -11 -16 -16 -17 -18 -16 -16 -7
-5 -6 -9 -10 -10 nan nan nan nan nan nan nan nan nan nan nan nan nan nan nan nan nan -7 nan nan nan nan nan nan nan nan nan nan nan nan nan nan nan nan nan nan nan nan nan nan nan nan nan nan nan nan nan -0 -0 nan nan nan -1 -0 -0 -0 -0 -0 -0 -0 -0 -0 -0 -0 -0 -0 -0 -0 -0 -0 -0 -1 -1 -4 -13 -13 nan -32 -25 -25 -13
-8 -8 -8 nan nan nan nan nan nan nan nan nan nan nan nan -8 -0 -0 nan nan nan nan nan nan nan nan nan nan nan nan -4 -5 nan nan nan nan nan nan nan nan nan nan nan nan nan nan nan nan nan nan nan nan nan nan nan -1 -1 -2 -2 -1 -1 -0 -0 -0 -0 -1 -1 -0 -0 -0 -0 -0 -0 -0 -0 -0 -0 -0 -1 -6 -6 -23 nan nan nan -28
-8 -9 -8 nan nan nan nan nan nan nan nan nan nan nan nan nan nan nan nan nan nan nan nan nan nan nan nan nan nan nan nan nan nan nan nan nan nan nan nan nan nan nan nan nan nan nan nan nan nan nan nan nan nan nan -11 -8 -8 nan nan -2 -2 -1 -1 -2 -2 -3 -5 -3 -1 -1 -0 -0 -0 -0 -0 -0 -0 -0 -1 -2 -2 -13 nan nan nan nan
-4 -7 -9 nan nan nan nan nan nan nan nan nan nan nan nan nan nan nan nan nan nan nan nan nan nan nan nan nan nan nan -6 nan nan nan nan nan nan nan -10 -12 -12 -11 nan nan nan nan nan nan nan nan nan nan nan nan nan nan nan nan nan -4 -4 -4 -4 -4 -4 -5 -4 -5 nan nan -1 -0 -0 -0 -0 -0 -0 -0 -0 -1 -1 -4 nan nan nan nan
Wind_Speed
5 6 6 8 8 7 7 9 10 10 9 9 8 8 9 10 10 10 11 12 13 13 13 13 13 13 13 13 14 15 15 16 17 18 19 20 21 22 23 24 24 25 25 25 25 25 24 24 24 24 25 25 25 25 26 26 26 27 27 27 28 28 29 29 30 30 30 29 29 28 28 28 27 27 27 26 25 25 25 25 25 25 25 25 25 26
6 6 6 7 8 7 7 9 9 9 10 9 9 9 10 10 10 9 9 11 12 13 12 13 14 16 17 15 15 16 17 18 19 20 20 21 22 22 23 24 24 24 24 25 25 24 24 24 24 24 24 24 25 25 25 25 26 26 27 27 28 28 29 29 30 30 30 30 29 29 28 28 27 27 27 26 26 26 26 26 26 26 26 26 27 27
6 6 6 7 7 7 7 9 9 9 9 9 9 9 11 11 10 9 9 9 10 10 10 11 12 14 16 17 18 20 22 24 25 25 24 23 23 23 23 24 24 24 24 24 24 24 24 23 23 23 23 24 24 25 25 25 25 25 26 26 27 27 28 28 28 29 29 29 29 28 27 27 26 26 27 27 27 27 27 27 27 27 27 27 28 28
7 7 7 6 6 6 6 8 8 8 7 7 8 10 11 10 9 8 8 9 9 9 9 10 10 11 12 13 16 20 24 26 26 26 26 25 23 22 22 22 23 23 24 24 24 24 23 23 23 22 23 23 24 24 25 25 25 25 25 25 26 26 27 27 27 27 27 27 27 27 26 26 26 26 26 27 27 27 27 27 28 28 28 28 28 29
6 7 7 7 6 6 7 8 8 7 6 7 8 9 9 8 8 8 8 9 9 9 8 8 9 9 9 10 13 18 23 25 25 25 25 25 24 23 22 21 21 22 23 23 24 24 24 23 23 22 22 23 23 24 24 24 24 24 24 24 25 26 26 26 26 26 26 26 26 26 26 26 26 26 26 26 27 27 27 28 28 28 28 28 29 29
6 6 7 6 6 6 7 7 7 6 6 7 8 8 7 7 7 7 8 9 9 9 8 8 8 8 8 9 13 17 21 23 23 23 23 24 25 26 26 25 24 23 22 23 24 24 24 24 24 24 23 23 23 23 24 24 23 23 23 23 24 25 26 26 26 26 26 26 26 26 26 26 26 26 26 26 27 27 28 28 29 29 28 28 28 29
5 5 6 5 5 5 6 6 6 6 7 7 7 7 7 6 6 7 8 8 8 8 8 8 7 7 8 9 12 15 18 19 19 19 19 21 23 25 26 27 27 27 25 24 23 24 25 25 25 25 24 24 23 23 23 23 23 22 22 23 24 24 25 26 26 26 27 27 26 26 26 26 26 26 26 26 27 27 28 29 29 29 29 28 28 29
6 6 5 5 5 5 5 5 5 5 7 7 7 8 7 7 6 7 7 8 7 7 7 8 8 7 7 8 10 12 13 13 13 13 15 17 19 21 23 25 26 27 27 26 25 24 24 24 25 25 25 25 24 24 24 24 23 23 23 23 24 24 25 26 26 27 27 27 27 27 26 26 26 26 26 26 27 27 28 29 29 30 29 28 28 28
6 6 6 5 5 6 6 5 4 5 6 6 7 7 7 8 8 7 7 7 7 6 7 8 8 8 8 8 8 9 10 10 9 9 11 12 14 16 19 20 22 24 26 27 26 25 23 23 23 24 24 24 25 25 25 24 24 24 24 24 24 25 25 26 26 27 27 28 28 27 27 27 26 26 26 26 27 27 28 29 29 30 30 29 28 28
6 6 6 5 5 5 6 5 5 5 5 5 5 5 6 7 9 9 9 8 7 7 7 7 8 9 9 8 8 8 9 9 9 10 12 13 14 16 17 17 18 20 23 25 25 25 24 22 21 22 23 24 24 25 25 25 25 25 25 25 25 26 26 26 27 27 28 28 28 28 28 27 27 27 27 27 27 27 28 28 29 29 29 28 27 27
6 6 6 5 5 4 5 5 4 4 5 6 6 5 5 6 7 9 11 10 9 8 8 7 8 8 9 9 9 8 8 7 8 9 12 13 15 16 17 16 17 18 20 22 22 23 22 21 20 20 21 22 23 24 24 24 24 25 25 26 26 27 27 27 28 28 28 28 28 29 28 28 28 28 27 27 27 27 27 28 28 28 28 27 27 27
5 5 5 5 5 5 5 5 4 5 5 6 6 6 6 5 6 7 9 10 10 10 9 8 8 7 8 8 8 8 7 7 7 8 9 10 11 12 13 13 14 15 16 17 18 19 20 20 19 18 18 20 22 23 23 23 23 24 25 26 27 28 28 28 29 29 29 29 29 29 29 29 29 28 28 28 27 27 27 27 27 27 27 27 27 27
5 5 4 5 5 5 5 5 5 5 5 6 6 7 7 7 6 6 7 8 9 9 9 9 8 7 7 7 6 6 6 7 8 8 8 8 8 9 9 9 10 10 11 11 11 12 15 17 17 16 15 16 18 20 22 22 23 24 25 26 27 28 28 29 29 29 29 29 30 30 30 29 29 29 28 28 27 26 26 26 26 26 27 28 28 28
5 5 5 5 5 5 5 6 6 6 6 5 6 7 7 7 7 7 7 8 8 8 8 9 9 8 6 5 5 5 6 7 8 8 9 8 7 7 7 8 8 8 8 8 8 9 11 12 13 13 14 14 14 16 17 20 22 24 25 25 26 27 28 29 29 30 30 30 30 30 30 29 29 29 28 28 27 26 26 25 25 25 26 27 28 28
6 6 6 6 6 6 5 6 6 6 6 5 6 7 7 8 8 8 8 9 8 8 8 8 8 7 5 4 4 5 6 7 8 9 10 8 7 6 7 8 8 8 7 7 8 8 10 9 10 11 13 16 16 16 16 16 18 22 23 24 26 27 27 28 29 29 30 30 30 30 29 29 29 29 28 28 27 26 25 24 24 25 26 27 27 27
5 5 6 6 6 6 5 5 5 6 6 6 7 7 8 8 8 8 8 9 8 8 8 9 9 8 5 4 4 4 6 7 8 9 10 9 7 6 6 8 8 8 7 7 7 7 8 8 9 10 11 15 17 19 20 21 20 21 21 22 24 26 27 27 28 29 29 29 29 29 29 29 29 28 28 28 27 26 25 24 24 24 25 26 26 26
5 5 6 6 6 6 5 5 5 6 6 6 7 7 7 8 8 8 8 8 8 7 7 7 8 7 6 5 4 4 5 7 8 8 9 9 8 6 6 7 8 8 7 7 7 7 8 8 8 9 10 13 16 18 20 21 22 22 23 22 22 24 26 27 27 28 28 29 29 29 29 29 29 28 28 28 27 27 26 25 25 25 25 26 26 26
5 5 6 6 6 6 6 6 6 6 6 7 7 7 7 7 7 7 7 7 7 7 7 7 6 6 6 6 5 5 6 7 8 9 9 9 8 6 5 6 7 8 8 8 7 7 7 8 8 9 11 15 17 19 20 21 22 23 24 23 22 22 24 25 26 27 28 28 28 28 29 28 28 28 28 28 27 27 26 26 25 25 25 26 26 26
5 5 5 6 6 7 7 7 7 7 7 7 8 8 8 7 6 6 6 6 7 7 7 7 7 6 6 7 7 7 7 8 8 9 9 9 8 6 5 6 7 8 8 8 8 7 7 8 9 12 14 17 18 20 21 22 23 24 24 24 23 22 22 23 25 26 27 28 28 28 28 28 28 28 28 27 27 27 27 27 26 26 26 26 26 26
6 6 6 7 7 8 7 7 7 7 8 8 8 8 7 7 7 7 7 6 6 6 6 7 7 7 7 8 8 8 8 8 8 8 8 8 7 6 5 6 7 8 8 7 7 7 7 8 9 11 14 16 18 20 21 22 23 24 24 24 23 23 22 22 23 25 26 27 27 28 28 28 28 27 27 27 27 27 27 27 27 27 27 27 27 27
8 7 7 6 7 7 7 7 7 8 9 9 8 7 6 6 7 7 7 7 7 7 7 7 7 7 7 8 9 9 8 8 8 8 6 6 6 5 4 5 6 8 8 7 6 6 6 8 8 9 12 15 18 20 21 21 22 23 24 24 24 23 22 21 22 23 25 26 27 27 27 27 27 27 26 26 26 26 26 26 27 27 27 27 28 28
8 7 7 6 6 6 7 8 8 9 10 9 7 6 5 6 7 7 7 7 7 7 8 8 8 8 8 9 9 8 7 7 7 7 6 7 7 6 4 4 5 7 8 7 6 6 7 8 9 10 13 17 19 20 20 20 20 21 23 24 24 24 23 21 20 21 23 25 26 27 27 27 27 27 26 26 25 25 25 25 26 26 27 27 27 28
7 7 7 6 5 5 7 7 7 7 7 7 6 5 5 6 6 7 6 6 7 7 8 8 8 8 8 8 8 7 6 5 6 7 6 8 8 7 5 4 5 6 6 6 6 7 8 9 9 10 13 17 19 19 18 18 18 20 23 25 26 26 24 22 20 20 22 24 26 27 27 27 27 26 26 26 25 25 25 25 25 26 26 26 27 27
6 7 6 6 6 6 6 6 6 6 5 5 5 5 5 5 5 5 5 6 6 7 7 8 8 8 7 7 7 6 5 5 6 6 6 7 7 6 4 5 6 7 7 7 7 9 10 9 9 9 11 15 17 17 16 16 18 20 23 25 26 27 26 23 20 18 19 22 25 27 27 27 27 26 26 26 26 26 26 25 25 26 26 26 27 27
7 7 7 7 8 9 9 9 9 8 8 6 5 5 5 6 6 6 5 6 6 6 7 8 8 8 7 7 7 6 5 5 6 6 6 6 6 6 5 6 7 8 9 8 8 9 9 10 9 9 9 11 13 14 15 16 18 21 23 25 26 26 26 24 21 18 16 18 22 25 27 27 27 27 27 26 26 26 26 26 26 26 26 26 27 27
11 11 12 13 14 16 17 16 16 16 15 12 9 7 6 6 6 6 5 6 6 7 7 8 8 8 7 6 6 5 5 5 5 5 5 5 6 6 6 7 8 9 10 9 9 9 9 10 10 9 8 9 10 11 14 16 19 21 23 24 25 25 26 24 22 20 17 16 18 21 25 27 28 28 27 27 27 27 27 27 27 27 27 26 26 26
16 17 17 18 18 18 18 18 19 19 20 18 15 12 9 7 6 6 6 6 6 7 7 8 8 8 7 7 6 6 5 5 5 4 5 5 6 7 7 7 8 9 10 9 9 9 10 10 9 9 8 7 7 8 13 16 19 20 22 22 23 23 24 23 23 21 19 16 15 16 20 23 26 27 28 28 28 28 28 28 28 28 27 25 23 22
17 17 17 17 17 17 18 18 18 19 19 19 19 17 12 8 6 7 7 6 7 7 7 7 8 8 7 7 7 6 5 4 4 4 5 5 6 6 7 7 7 8 9 9 9 9 10 9 8 8 7 6 6 7 11 14 17 18 19 20 21 21 22 22 22 22 21 19 16 14 14 16 20 23 25 27 27 28 28 28 28 27 25 21 17 15
14 15 15 16 16 16 16 16 16 17 18 19 18 16 12 8 6 7 7 7 7 7 7 7 7 7 7 8 8 6 5 4 4 4 6 5 6 6 6 6 7 7 8 8 8 7 7 6 6 5 5 6 6 7 8 11 13 14 15 17 18 19 19 20 21 21 22 20 18 15 13 12 13 16 19 22 24 26 26 27 26 23 19 16 14 13
11 12 12 12 13 12 12 11 12 14 16 17 17 15 11 7 6 7 7 7 7 7 8 8 8 8 7 8 8 6 4 3 4 5 6 6 6 6 6 7 7 7 7 7 7 6 5 5 4 5 5 6 7 7 7 8 9 9 10 12 14 15 16 17 19 21 22 20 18 16 13 11 10 10 12 15 18 21 23 24 22 18 13 12 12 12
10 10 9 9 8 8 8 8 9 10 12 13 13 12 9 7 7 6 7 7 7 7 8 8 8 8 8 7 6 6 4 4 5 6 6 5 5 6 7 7 7 7 5 6 6 6 6 5 5 5 5 6 7 7 7 7 7 7 7 8 9 11 14 16 17 19 20 19 17 16 13 11 10 8 8 9 12 15 18 20 19 16 11 11 11 12
9 8 8 8 7 6 6 7 8 8 9 9 9 9 8 8 7 7 7 7 7 7 8 8 8 8 8 7 6 6 5 4 6 7 7 6 5 5 6 7 7 7 5 5 6 6 6 6 5 5 6 6 6 6 6 7 7 7 7 7 7 9 12 14 15 16 16 17 16 14 12 11 9 8 6 6 7 10 13 16 16 14 11 10 11 11
8 8 7 7 7 6 6 7 7 7 7 7 7 7 7 7 7 8 7 7 7 7 7 8 8 8 8 8 7 7 6 5 7 9 10 7 5 5 6 7 7 7 6 6 6 6 6 6 6 6 6 6 6 5 6 6 6 6 6 6 7 8 10 11 12 12 13 14 14 13 11 9 8 7 5 4 5 6 9 12 14 14 12 10 10 10
8 8 7 7 7 6 7 7 7 7 7 7 7 7 6 7 7 7 7 7 7 7 7 7 8 8 8 8 8 7 7 7 8 11 11 8 6 5 6 7 7 7 7 6 6 6 6 7 7 7 7 6 5 5 5 5 5 6 5 6 6 6 8 8 9 9 11 12 11 10 9 8 7 7 5 4 4 4 6 9 12 14 14 11 10 9
7 7 7 7 7 7 7 7 7 7 7 7 7 7 7 7 7 7 7 7 7 7 6 6 7 7 8 8 8 9 8 8 9 11 11 9 7 6 6 7 7 7 7 7 7 6 6 7 8 8 8 7 6 5 4 4 4 5 5 5 5 6 6 6 7 8 9 10 10 9 8 7 6 6 5 4 3 4 5 7 10 13 14 13 11 10
7 7 7 7 7 7 7 8 8 7 7 7 7 7 7 7 7 7 7 6 7 7 7 7 7 7 7 7 8 9 10 9 10 11 12 10 8 6 6 6 6 7 8 8 7 7 7 8 9 9 9 8 7 5 4 4 4 4 5 5 5 6 6 6 6 7 7 8 9 9 9 7 6 5 5 4 4 4 5 7 9 11 13 13 13 11
6 7 7 7 7 7 7 7 7 7 7 7 7 7 7 7 7 7 7 6 6 7 7 8 8 8 8 8 8 9 9 10 10 11 12 10 8 7 6 6 7 8 8 8 8 8 8 8 8 9 8 8 7 6 6 6 5 5 5 5 5 6 6 6 6 7 7 8 8 9 9 8 7 6 5 5 5 5 5 7 8 10 12 13 13 13
6 7 7 6 6 7 7 7 7 7 7 7 7 8 8 8 8 8 7 7 7 8 8 7 7 8 10 11 11 11 11 11 12 12 13 10 9 7 7 7 7 8 7 8 8 8 8 8 9 8 8 7 7 8 8 8 7 7 6 5 5 5 6 6 7 7 7 7 8 9 9 8 7 6 5 5 4 4 4 4 5 7 10 11 12 13
6 6 7 7 7 7 7 7 7 7 7 7 7 7 7 8 8 8 7 7 7 7 8 7 7 8 9 10 11 12 12 12 12 12 12 10 8 7 7 8 8 8 8 7 7 8 8 8 8 8 8 8 8 9 8 8 8 8 7 6 6 5 5 6 7 7 8 7 7 7 7 7 7 6 5 4 3 3 4 4 4 4 5 6 8 11
6 6 6 7 7 6 6 7 7 7 7 7 8 8 7 7 7 7 7 7 7 7 7 8 7 7 8 9 10 10 10 9 9 9 8 8 7 7 7 7 8 8 8 7 7 7 8 8 8 8 8 8 8 9 8 8 8 8 9 7 5 5 6 6 7 7 7 7 7 6 6 6 6 6 5 4 3 3 3 3 3 3 3 4 5 6
7 6 6 7 7 7 7 7 7 7 7 7 7 6 6 6 7 7 7 7 7 7 7 7 7 7 7 7 7 7 8 8 8 8 7 8 8 8 7 7 7 7 8 8 8 7 7 8 8 8 8 8 9 9 9 9 10 11 10 8 7 6 6 6 6 6 7 7 7 7 6 6 7 6 6 5 4 4 3 3 4 4 3 3 4 4
8 7 7 7 6 6 6 6 7 7 7 6 6 6 6 6 6 7 7 7 7 7 7 7 8 8 7 7 6 6 6 7 7 8 8 9 9 8 7 6 6 7 8 8 9 8 8 8 8 8 8 8 9 9 9 9 10 10 9 9 8 8 7 5 5 5 6 7 7 7 8 7 7 7 7 6 5 4 3 4 4 4 4 3 4 4
7 7 7 7 6 7 7 7 7 7 7 6 6 6 6 6 6 6 7 7 7 7 8 7 8 8 8 8 7 6 6 5 6 7 8 8 8 7 7 7 6 6 7 8 9 9 9 9 8 8 8 8 8 9 10 10 10 10 9 9 9 7 5 3 3 4 6 7 7 7 6 6 6 7 7 6 5 4 4 4 4 4 4 4 4 5
7 7 7 6 6 7 7 7 7 6 7 7 7 6 6 6 7 7 7 6 7 7 7 7 7 7 8 8 8 8 7 6 6 6 7 8 7 7 7 7 7 6 6 7 8 9 9 9 9 8 8 8 8 9 9 9 9 9 9 10 9 8 5 4 4 5 6 6 7 6 6 6 6 6 6 6 5 5 4 4 4 4 4 5 5 5
6 7 7 7 7 7 7 7 7 7 7 7 7 7 7 7 7 6 6 6 7 7 7 7 7 7 7 8 8 8 7 7 6 6 5 7 8 9 8 7 6 6 6 6 7 7 8 9 9 9 8 8 8 8 9 9 9 10 10 10 9 8 6 5 5 5 5 6 7 7 8 7 7 6 6 5 4 4 4 5 5 5 5 5 5 6
6 7 7 7 7 7 8 8 8 7 7 7 7 7 7 6 6 6 6 6 7 7 7 6 6 6 7 8 8 8 8 8 7 7 6 6 6 6 6 6 6 6 6 6 6 7 7 8 9 9 9 8 8 8 8 8 9 9 9 9 9 8 6 5 5 4 5 6 6 8 9 9 9 7 6 5 4 4 4 4 5 5 6 6 6 6
7 7 7 7 7 7 8 8 8 8 8 8 8 7 7 6 6 6 6 6 6 6 7 6 6 6 7 8 8 8 9 9 9 8 7 7 7 6 6 6 6 7 6 6 7 7 7 8 8 8 7 7 7 8 8 8 8 8 8 8 9 8 7 6 5 6 6 7 8 9 11 10 9 8 7 6 4 4 4 4 4 5 5 5 6 6
7 7 7 7 7 8 8 8 8 8 8 8 8 8 7 7 8 8 7 6 6 6 7 6 6 7 8 8 8 8 9 9 9 9 8 8 7 7 7 7 7 7 7 7 7 7 7 8 8 7 6 6 6 7 7 7 7 7 8 8 8 8 8 8 8 8 9 10 11 12 12 10 9 8 8 7 6 5 4 4 4 4 4 5 5 6
7 7 8 8 8 8 8 8 8 8 8 9 9 8 7 8 9 9 7 6 6 6 6 7 7 8 8 8 8 8 9 9 9 8 8 8 7 7 7 7 7 7 7 7 6 5 5 6 7 7 6 5 5 6 7 7 7 7 8 8 8 8 8 8 9 9 9 10 12 13 12 10 9 8 8 8 7 6 5 5 4 4 4 4 5 5
7 7 7 8 8 8 8 8 8 9 9 9 9 9 8 8 7 7 6 6 6 6 6 7 7 8 8 8 8 9 9 8 8 8 8 7 7 7 8 8 8 8 8 7 6 6 5 5 4 5 6 5 4 4 5 6 6 7 7 7 7 7 7 8 8 8 8 9 10 11 12 10 9 8 7 7 7 7 6 5 5 4 4 4 4 5
8 8 8 8 8 8 8 8 8 9 9 9 9 9 9 8 8 7 6 6 6 6 6 7 7 8 8 9 9 9 9 9 9 9 8 7 7 7 8 8 8 8 8 8 7 7 6 6 5 4 4 4 4 4 3 4 6 6 6 6 6 6 6 7 7 8 8 8 8 9 10 9 9 8 8 7 7 7 6 6 5 5 4 3 3 4
Wind_Direction
333 333 334 340 339 337 338 343 341 337 333 334 335 337 340 338 334 331 333 338 339 338 334 331 328 323 316 306 299 295 295 293 288 282 276 271 266 261 258 255 253 251 249 247 245 243 242 241 240 239 238 238 237 236 235 233 232 231 230 229 228 227 226 225 224 223 221 220 219 218 217 217 216 215 213 212 211 210 209 209 209 208 208 208 208 209
332 331 332 340 341 338 333 340 340 336 331 331 334 339 342 339 336 336 340 343 342 340 337 338 338 337 336 332 325 321 322 320 314 305 296 287 277 270 264 259 255 252 250 247 245 244 242 241 240 240 239 239 238 237 236 235 233 232 231 230 229 229 228 227 226 224 223 222 220 219 218 217 216 215 214 212 211 210 209 209 209 209 208 208 209 209
334 333 335 340 341 339 334 336 335 333 328 330 337 343 343 339 338 339 341 340 338 337 336 339 341 342 342 344 344 343 340 337 332 326 317 306 295 283 273 265 259 254 250 247 245 244 242 241 240 240 240 240 240 239 238 237 235 234 232 231 230 230 229 228 227 225 224 223 221 220 218 217 216 215 214 213 211 210 210 210 210 210 209 209 210 210
335 334 336 336 338 338 334 331 329 328 328 336 344 346 343 340 338 337 338 335 332 331 331 336 338 339 339 341 343 343 342 338 334 331 328 323 315 304 291 278 269 261 253 249 246 244 242 241 240 240 240 241 241 242 241 240 238 236 235 233 232 231 230 228 227 226 224 223 221 220 218 217 216 215 214 213 212 211 210 210 211 211 211 211 211 211
335 334 334 334 333 332 332 327 325 326 335 346 349 346 342 338 336 334 333 331 329 328 327 332 334 335 333 333 335 336 335 332 331 331 334 335 334 329 319 305 290 276 264 256 250 246 243 241 240 239 239 241 242 243 243 242 241 239 237 236 234 233 231 230 228 226 224 223 221 220 218 216 215 214 214 213 212 211 211 211 211 212 212 212 212 213
333 332 331 331 329 328 328 325 326 332 348 352 348 343 337 334 333 332 332 330 328 326 325 327 328 329 329 329 330 330 329 328 328 331 337 342 345 345 341 331 319 305 288 273 261 252 246 243 241 239 239 240 241 242 243 243 243 241 240 238 236 235 233 231 229 227 225 223 222 220 218 217 215 214 213 213 212 212 211 212 212 212 212 213 213 214
327 328 328 326 325 324 324 320 330 348 1 352 344 337 332 331 331 330 327 325 324 323 322 322 323 324 325 327 328 328 326 325 326 330 339 344 347 348 346 342 336 328 314 298 281 266 255 248 243 240 238 238 239 241 242 243 244 244 243 241 239 237 235 233 231 229 227 225 223 221 219 217 216 214 213 212 212 212 211 212 212 212 212 212 213 214
324 326 328 326 325 323 321 319 341 3 6 351 339 333 329 330 329 327 323 321 321 321 322 322 322 323 324 327 327 326 322 321 323 331 340 343 344 344 343 341 338 334 327 317 304 288 270 258 249 243 239 237 237 238 240 242 243 244 244 243 241 239 237 234 232 230 228 226 224 223 221 218 217 215 214 213 212 211 211 211 212 212 211 212 212 214
324 325 327 328 327 325 321 324 348 6 3 347 336 330 328 329 328 326 324 324 324 326 326 325 324 324 323 325 325 322 316 314 322 333 340 340 340 339 337 335 334 331 329 324 317 306 292 274 260 250 242 239 237 237 238 239 241 242 243 243 243 241 238 236 234 232 230 228 226 224 222 220 218 216 214 213 212 211 211 211 211 211 211 210 211 212
324 324 324 326 326 324 321 326 340 352 350 337 329 326 327 330 329 328 327 327 328 329 329 328 325 324 322 323 322 318 312 313 324 335 338 335 333 332 331 329 327 325 324 323 321 316 308 292 276 261 251 245 240 238 237 237 238 239 241 242 242 241 240 238 235 233 231 230 228 226 223 221 219 217 215 214 213 211 211 211 211 212 212 211 211 211
327 325 323 323 324 323 321 326 332 336 334 328 324 325 329 333 332 330 327 327 328 329 329 327 325 323 322 322 320 317 313 320 330 335 334 331 330 328 327 324 322 320 319 320 320 319 316 306 292 276 262 253 247 242 239 237 237 237 238 239 240 240 240 238 236 234 232 230 229 227 225 222 220 218 216 214 213 211 211 211 212 213 214 213 212 211
328 326 324 324 323 324 324 325 326 327 328 329 329 331 335 338 335 329 323 323 324 326 326 323 321 320 318 316 314 315 321 331 335 334 330 329 329 328 326 323 321 319 318 318 319 319 318 314 304 290 275 263 254 248 243 241 239 238 237 238 239 239 239 238 236 234 232 230 229 227 225 223 221 219 216 214 213 211 210 211 212 214 216 215 213 211
328 326 323 323 324 325 326 327 328 330 334 336 336 335 333 335 332 326 318 317 319 321 321 319 318 317 314 310 310 317 331 335 333 329 325 325 327 328 325 321 319 318 317 316 316 317 319 318 312 303 289 275 263 254 249 246 243 241 239 239 238 238 238 237 235 234 232 230 228 226 225 223 221 219 217 215 213 211 210 210 211 213 215 215 214 212
329 327 325 325 326 326 326 327 328 330 335 337 336 332 328 328 326 324 318 315 316 317 316 314 314 315 315 311 316 327 340 335 330 325 321 320 322 324 320 315 312 312 311 310 309 311 317 321 320 317 313 303 284 268 263 255 249 246 243 241 239 238 237 236 234 233 231 229 227 226 224 222 221 219 217 215 213 211 209 209 209 210 211 212 212 212
328 327 325 325 324 324 324 325 326 327 331 334 333 331 327 326 325 324 321 318 318 318 316 314 313 314 314 315 327 339 343 334 327 322 318 316 317 319 316 310 307 305 305 303 304 308 316 322 325 328 331 331 330 326 318 299 273 258 254 247 242 239 237 236 234 233 231 229 227 225 224 222 220 219 217 215 213 211 209 207 207 206 206 208 208 209
326 324 322 321 320 320 321 323 325 327 331 333 334 332 329 326 325 324 321 319 319 320 321 320 319 318 315 317 330 340 341 330 324 319 315 312 314 318 315 308 304 303 302 302 305 310 318 323 324 324 323 327 330 330 329 326 310 290 277 262 251 243 238 236 234 232 231 229 227 225 224 222 221 219 217 215 213 211 208 206 205 205 205 205 206 207
323 322 320 319 319 319 322 325 328 329 331 332 331 329 325 322 320 319 318 319 320 321 322 323 322 320 318 319 328 339 341 328 320 314 310 307 310 314 313 304 300 300 303 305 309 314 320 320 319 316 313 315 318 320 320 320 315 308 301 286 270 255 243 237 234 232 230 229 227 226 224 223 221 219 217 215 213 210 208 206 204 204 204 204 205 205
325 323 321 321 322 324 327 330 331 332 331 329 326 322 318 314 313 314 315 318 319 319 319 319 317 314 314 315 321 333 339 325 315 309 305 303 305 308 307 298 295 297 303 307 311 314 315 313 311 309 307 309 311 313 314 314 313 312 309 300 287 272 256 245 237 233 230 229 227 226 224 223 221 220 218 216 213 210 207 205 204 203 203 203 203 204
330 329 329 328 327 326 328 329 329 330 329 326 322 318 314 313 314 315 315 316 316 316 316 313 311 308 307 306 314 325 332 320 310 303 300 299 302 306 306 299 297 299 303 306 308 310 308 305 304 304 304 307 309 312 313 313 313 312 311 306 299 287 272 256 244 237 232 230 228 226 225 223 222 220 219 216 213 210 207 205 203 202 202 202 202 202
331 331 333 331 327 325 322 323 324 325 322 317 313 310 309 313 316 318 316 315 312 311 311 307 306 306 307 306 312 319 324 315 306 299 296 296 299 303 306 303 302 303 302 302 304 306 306 305 305 306 306 308 311 313 314 315 315 315 314 312 306 297 285 269 255 243 236 232 229 227 225 223 222 220 219 216 214 211 208 205 203 202 201 201 201 201
327 326 330 329 325 320 316 317 318 316 312 309 306 305 308 314 316 316 315 315 314 313 313 307 307 308 311 309 311 314 316 310 304 300 297 295 297 301 308 305 303 301 300 300 303 308 309 309 309 309 309 309 310 312 314 316 318 320 320 317 313 306 295 281 265 251 241 235 231 228 225 223 221 220 218 216 214 212 209 207 205 203 202 201 201 201
319 317 318 317 313 309 307 308 308 307 304 304 305 309 316 318 316 314 316 318 318 317 315 310 308 308 308 304 304 305 305 301 300 301 300 298 299 303 312 305 300 299 298 303 311 317 318 316 313 311 309 308 308 309 312 317 322 326 327 324 320 314 305 292 275 258 246 238 233 229 226 223 220 218 216 214 213 211 209 208 206 205 203 203 202 201
309 306 307 305 303 301 300 300 300 300 301 304 308 313 315 312 310 311 318 321 319 315 311 307 305 303 300 297 297 298 299 300 303 305 303 300 302 307 316 310 304 301 301 313 322 325 321 316 312 308 306 305 305 306 310 319 327 331 331 329 325 321 315 304 288 268 250 240 234 229 226 223 220 217 215 213 211 210 209 208 207 206 205 204 204 203
301 300 300 301 300 300 299 299 302 305 307 310 310 308 303 300 303 309 318 318 314 310 306 305 303 302 299 298 299 301 306 316 319 315 306 298 300 306 320 321 315 311 312 321 325 322 317 311 306 303 302 301 302 306 313 323 331 335 334 331 328 324 321 315 303 283 261 245 236 230 226 223 220 217 215 212 211 210 209 209 208 208 207 207 206 205
307 306 306 307 309 310 312 314 317 320 323 322 318 312 306 308 311 316 317 313 311 309 308 307 307 306 306 307 306 307 315 325 324 315 302 296 299 309 328 332 326 320 317 320 320 316 310 305 303 301 299 299 302 307 317 328 334 335 334 330 327 324 322 319 314 303 281 257 242 233 228 225 222 220 217 215 214 213 213 213 212 212 211 210 209 208
320 319 318 317 317 318 320 323 326 329 332 330 328 325 322 323 324 323 320 317 316 316 314 311 309 308 309 310 309 311 319 323 317 307 301 305 312 320 330 333 327 320 315 314 314 312 306 303 301 300 297 297 303 312 323 331 334 333 331 327 324 321 319 318 317 313 303 279 257 242 233 229 226 224 222 221 220 220 220 220 220 219 217 215 213 211
327 325 323 322 323 325 328 331 333 334 334 334 334 335 335 334 330 325 322 323 322 321 316 313 311 311 312 312 311 313 321 319 314 312 321 322 320 320 323 326 323 317 311 309 309 308 304 300 298 296 295 295 300 314 328 331 331 330 327 323 320 317 315 314 314 314 311 302 284 262 245 236 232 230 228 227 227 227 227 227 227 226 224 221 218 215
332 330 329 329 330 332 335 337 337 337 336 336 337 339 341 339 332 326 325 327 325 321 315 314 313 313 314 312 312 312 317 312 317 329 345 334 322 314 316 319 317 314 310 306 305 303 301 296 293 292 292 298 306 318 327 328 327 325 322 320 317 315 312 310 310 310 310 308 300 286 267 251 241 236 233 232 232 231 231 231 231 229 227 224 222 220
334 334 333 334 335 337 339 339 338 338 337 338 340 342 346 342 333 327 327 329 325 320 316 315 313 313 312 310 309 309 310 307 324 344 350 332 316 307 312 313 314 313 312 308 305 302 299 296 294 294 297 309 316 320 321 321 320 319 318 318 316 313 311 308 308 307 307 306 303 298 289 273 256 245 238 235 234 233 232 231 230 228 225 222 220 219
337 336 336 337 338 338 339 338 338 338 338 338 340 342 345 342 335 330 329 329 325 321 318 317 315 314 313 311 310 308 306 316 339 349 345 327 314 309 314 313 314 315 316 313 310 308 304 303 302 304 310 317 319 317 315 313 311 311 313 316 316 315 313 310 308 307 305 304 303 301 298 290 278 262 247 239 235 232 230 227 225 222 219 216 214 214
339 338 337 338 338 337 336 337 337 338 338 338 339 341 342 340 335 332 331 329 325 321 318 317 315 315 315 314 312 309 308 323 340 345 340 323 314 311 315 313 312 314 317 315 313 311 310 310 311 313 316 315 312 309 307 306 305 307 310 315 319 319 318 314 311 308 306 304 302 301 299 297 293 284 266 250 239 233 228 223 219 215 211 208 208 209
339 338 338 337 337 336 335 337 338 337 336 337 337 338 338 336 335 332 331 327 323 319 317 315 314 314 313 310 306 304 305 317 333 339 338 323 312 309 311 308 308 309 311 308 305 304 306 309 313 315 316 310 306 303 303 301 301 303 309 316 320 322 321 318 315 311 307 304 303 301 301 300 299 295 285 268 250 237 229 222 216 211 206 205 206 207
338 337 336 336 336 336 336 338 338 336 335 335 335 334 334 333 332 330 327 324 320 317 314 314 314 314 313 309 304 300 301 310 326 334 335 323 311 305 306 305 305 307 308 303 298 294 294 300 305 309 309 306 303 302 300 298 298 301 308 315 319 320 321 321 317 313 309 306 304 303 303 302 301 299 295 285 266 248 235 226 219 213 206 205 206 207
336 336 335 336 336 336 337 337 337 335 334 333 333 333 331 330 328 326 323 319 317 314 312 313 314 314 314 311 306 303 302 310 322 328 328 318 308 302 303 304 305 307 309 306 302 298 292 296 301 305 305 305 303 300 296 295 296 299 305 308 310 313 315 316 314 311 308 306 305 305 305 306 306 306 301 295 282 264 248 234 224 218 214 211 208 206
335 335 336 337 337 337 337 337 336 335 333 332 332 331 329 327 325 322 318 315 313 311 310 309 310 310 310 309 307 305 306 311 319 322 318 312 305 301 302 303 306 308 308 307 306 304 299 300 302 305 305 305 304 301 294 292 294 297 299 298 299 301 304 306 305 305 305 305 305 306 308 309 310 310 308 305 295 277 260 244 233 226 221 217 213 208
334 335 337 338 338 337 337 336 334 333 332 331 330 328 326 324 321 318 315 312 310 309 309 307 304 302 301 300 300 301 304 308 312 313 310 307 304 302 300 303 307 308 306 306 305 305 304 303 304 305 305 306 305 305 304 302 301 300 299 298 299 299 299 300 300 300 301 302 304 306 309 310 310 308 309 310 300 285 268 254 243 235 228 223 219 215
334 334 336 337 337 336 335 333 332 331 330 329 326 324 323 320 317 314 313 309 307 307 307 305 302 298 296 294 293 294 297 301 303 304 304 303 302 302 300 302 305 306 304 304 305 305 305 305 306 307 307 306 308 310 313 315 313 310 307 308 307 306 303 301 298 297 296 297 299 302 305 306 305 305 308 312 308 295 276 260 249 240 234 230 226 222
333 334 335 336 336 335 333 330 329 328 327 324 322 320 318 315 312 310 310 309 308 307 306 304 301 297 296 295 293 293 293 294 296 297 299 301 302 302 301 300 301 302 301 301 302 304 305 306 308 309 309 308 308 309 312 314 314 313 313 314 312 309 306 303 300 297 294 292 294 297 301 302 303 305 310 318 323 320 302 282 262 247 237 234 232 229
332 332 333 334 334 332 330 327 324 322 320 317 315 313 312 310 309 309 309 309 308 306 302 301 300 298 298 297 296 295 294 293 293 295 298 300 301 302 301 301 300 301 300 299 299 299 301 302 304 307 309 309 309 310 310 310 310 311 313 314 313 310 308 307 304 300 296 293 292 294 299 302 303 304 306 310 313 312 307 298 283 260 242 238 236 234
330 329 330 331 330 328 324 321 318 315 312 310 309 310 309 309 310 310 311 309 308 306 302 300 299 299 299 299 298 297 295 293 292 293 296 297 298 299 300 300 301 302 304 301 299 297 297 298 298 300 303 304 306 307 309 309 310 312 314 314 313 313 314 310 308 305 303 299 297 296 298 300 300 298 294 288 284 283 286 290 286 274 254 239 235 234
329 328 327 326 325 322 318 315 312 309 308 309 311 312 311 313 313 313 313 312 311 311 310 309 308 305 302 298 294 291 289 288 288 289 290 290 291 293 296 298 301 304 307 306 303 300 299 298 298 298 299 300 301 301 302 304 307 309 310 307 304 303 305 305 307 310 312 311 310 309 308 306 302 297 289 278 268 261 260 271 278 280 270 249 235 228
326 325 324 322 320 319 315 312 310 309 309 311 312 313 312 314 314 315 314 315 316 316 318 318 317 314 310 305 299 292 288 287 287 288 288 287 288 289 291 295 301 306 310 308 306 304 302 301 299 298 299 300 301 301 301 302 304 304 302 299 298 297 296 299 306 316 319 317 316 315 314 312 310 306 299 290 281 271 262 265 271 275 276 262 246 233
323 321 319 317 315 313 312 312 312 313 314 314 313 311 311 311 311 312 312 313 315 316 318 319 318 315 313 312 311 308 302 294 289 287 286 284 282 282 286 292 299 305 309 309 307 306 305 303 300 298 298 300 300 299 299 301 301 301 298 296 296 297 296 308 320 323 320 316 312 308 306 307 306 306 304 301 296 290 283 279 277 277 278 275 262 247
317 317 316 315 314 314 314 315 316 316 316 314 313 310 309 310 309 310 310 310 312 314 317 317 315 313 311 312 313 314 312 308 299 291 285 284 286 290 293 297 298 300 303 305 306 306 307 304 301 298 298 298 297 295 295 297 299 299 299 296 293 291 290 305 318 322 320 318 315 311 307 303 299 297 296 297 299 300 299 298 294 290 284 280 272 260
315 317 318 317 317 318 318 316 316 315 315 313 312 310 309 310 310 310 309 308 310 313 315 315 314 313 313 314 314 315 314 314 312 307 298 293 297 301 301 300 300 299 299 299 299 299 301 300 299 298 297 294 291 290 290 293 295 296 296 295 293 290 289 296 304 311 314 317 319 319 318 312 304 295 288 287 290 295 298 298 295 291 285 281 276 268
318 318 318 318 318 317 316 316 315 314 313 312 311 310 310 310 309 308 307 309 311 312 311 312 312 311 311 313 314 315 315 315 316 316 315 312 309 307 304 301 300 300 299 295 290 286 284 287 290 294 296 294 290 287 285 289 291 294 297 301 302 302 301 301 304 309 314 319 322 325 325 321 314 306 297 291 288 286 286 285 282 280 279 278 277 274
319 318 317 316 315 314 314 314 314 314 313 312 311 310 310 311 310 310 309 311 311 310 309 308 308 307 307 309 312 313 313 314 315 316 318 318 318 316 312 308 306 303 299 293 287 282 276 274 277 281 287 291 291 291 289 290 293 298 305 313 316 317 318 322 328 334 336 336 335 333 331 326 321 316 310 305 298 292 285 280 276 273 273 276 277 277
317 316 314 313 312 312 312 313 314 313 312 311 310 310 311 312 314 315 313 313 311 309 308 309 308 307 306 307 308 309 309 310 311 314 316 317 318 318 318 316 313 310 304 297 289 282 275 271 268 267 269 273 282 289 293 298 305 313 320 324 325 327 329 336 343 348 348 344 340 335 331 327 323 320 317 314 310 305 299 291 284 278 274 274 276 278
314 313 312 311 311 311 311 312 311 311 310 310 310 310 311 312 314 315 312 310 308 307 307 307 307 307 306 306 306 306 307 307 309 311 314 315 316 316 316 317 316 315 312 306 300 291 282 272 264 257 252 252 263 279 294 307 317 324 326 325 327 331 336 339 341 343 343 338 334 331 327 323 319 316 315 314 312 310 308 302 295 288 280 276 274 275
312 311 311 310 310 309 309 309 309 309 308 309 310 310 311 312 313 312 309 306 304 304 303 303 304 305 304 305 306 307 308 309 309 310 312 313 315 315 315 317 318 318 316 316 316 314 310 299 281 264 252 253 263 283 303 316 321 323 321 322 327 332 334 331 331 332 332 329 326 324 321 318 315 314 314 314 312 311 309 307 303 297 286 278 272 271
312 311 311 310 309 308 307 307 307 307 307 308 309 310 311 312 311 310 308 306 305 303 302 301 301 301 301 303 305 307 308 309 309 309 310 311 312 313 313 315 317 319 319 320 322 323 324 322 317 304 282 282 301 319 317 319 320 319 319 322 326 330 327 323 322 322 323 321 319 317 316 315 315 318 321 319 316 313 312 312 309 304 293 284 277 275